Powrót do katalogu

COSMOS 409

AktywnyMilitariaLEO
NORAD 5180·PAYLOAD·🇷🇺 Russia

Wystrzelony Apr 28, 1971 z Plesetsk Cosmodrome

Loading…

Następne Przeloty (najbliższe 24 godziny)

TLE

ŚwieżeSource: Space-Track

Epoka: Sep 14, 2026, 08:44 UTC

1 05180U 71038A   26257.36400196  .00000203  00000-0  56857-3 0  9993
2 05180  73.9989 239.2211 0021997 112.3361  40.7911 13.17846976663993

Śledź COSMOS 409 w czasie rzeczywistym z AllMySat

Download on the App Store